GW3308 Weather Reports


time (UTC)temp
F
wind
direction
speed
knots
gust
knots
rain 1hr
in
rain 24hr
in
rain mn
in
humidity
%
barometer
mb
20260507210507 47 185 2.6 8.7 0.00 0.00 0.00 40 1010.6
20260507210019 47 255 0.9 7.0 0.00 0.00 0.00 41 1010.6
20260507205506 47 233 2.6 7.0 0.00 0.00 0.00 41 1010.6
20260507205007 47 219 1.7 7.0 0.00 0.00 0.00 42 1010.6
20260507204523 48 165 1.7 7.0 0.00 0.00 0.00 40 1010.5
20260507204009 48 236 0.0 7.0 0.00 0.00 0.00 41 1010.5
20260507203509 47 276 1.7 7.0 0.00 0.00 0.00 40 1010.6
20260507203033 48 207 1.7 8.7 0.00 0.00 0.00 39 1010.6
20260507202502 48 336 1.7 8.7 0.00 0.00 0.00 43 1010.7
20260507202002 47 280 1.7 7.8 0.00 0.00 0.00 43 1010.7
20260507201511 47 169 1.7 8.7 0.00 0.00 0.00 42 1010.6
20260507201003 47 188 1.7 10.4 0.00 0.00 0.00 42 1010.6
20260507200506 47 267 5.2 10.4 0.00 0.00 0.00 41 1010.7
20260507200016 48 61 0.9 7.8 0.00 0.00 0.00 42 1010.7
20260507195506 47 236 3.5 9.6 0.00 0.00 0.00 41 1010.7
20260507195011 47 252 1.7 9.6 0.00 0.00 0.00 42 1010.8
20260507194527 47 334 1.7 8.7 0.00 0.00 0.00 42 1010.8
20260507194006 47 282 3.5 7.8 0.00 0.00 0.00 41 1010.8
20260507193509 47 236 1.7 6.1 0.00 0.00 0.00 43 1010.8
20260507193032 48 227 1.7 6.1 0.00 0.00 0.00 43 1010.8
20260507192509 47 281 2.6 7.0 0.00 0.00 0.00 43 1010.8
20260507192009 47 230 1.7 7.8 0.00 0.00 0.00 49 1010.8
20260507191528 46 225 1.7 8.7 0.00 0.00 0.00 48 1011.0
20260507191002 45 197 1.7 8.7 0.00 0.00 0.00 47 1011.0
20260507190503 46 287 4.3 8.7 0.00 0.00 0.00 44 1011.0
20260507190012 46 160 2.6 8.7 0.00 0.00 0.00 45 1011.0
20260507185504 46 221 1.7 8.7 0.00 0.00 0.00 48 1011.0
20260507185010 45 332 2.6 8.7 0.00 0.00 0.00 49 1011.0
20260507184517 45 28 3.5 8.7 0.00 0.00 0.00 48 1011.0
20260507184007 46 271 2.6 7.8 0.00 0.00 0.00 48 1011.1
20260507183508 46 191 2.6 7.8 0.00 0.00 0.00 45 1011.1
20260507183035 45 260 1.7 7.8 0.00 0.00 0.00 47 1011.1
20260507182506 45 258 2.6 7.8 0.00 0.00 0.00 47 1011.1
20260507182011 46 203 3.5 7.8 0.00 0.00 0.00 48 1011.2
20260507181524 46 207 0.9 7.0 0.00 0.00 0.00 48 1011.3
20260507181010 45 284 2.6 8.7 0.00 0.00 0.00 47 1011.3
20260507180509 45 262 3.5 8.7 0.00 0.00 0.00 47 1011.3
20260507180032 45 227 3.5 8.7 0.00 0.00 0.00 48 1011.3
20260507175504 46 25 2.6 8.7 0.00 0.00 0.00 47 1011.4
20260507175004 45 294 4.3 8.7 0.00 0.00 0.00 48 1011.4
20260507174516 46 229 3.5 8.7 0.00 0.00 0.00 48 1011.4
20260507174006 46 233 3.5 7.8 0.00 0.00 0.00 49 1011.5
20260507173506 45 244 1.7 12.2 0.00 0.00 0.00 49 1011.5
20260507173020 45 173 1.7 12.2 0.00 0.00 0.00 47 1011.5
20260507172507 46 221 0.0 9.6 0.00 0.00 0.00 47 1011.6
20260507172009 45 198 0.9 9.6 0.00 0.00 0.00 47 1011.7
20260507171523 45 201 2.6 8.7 0.00 0.00 0.00 48 1011.8
20260507171012 44 236 3.5 8.7 0.00 0.00 0.00 47 1011.9
20260507170513 44 269 2.6 8.7 0.00 0.00 0.00 46 1011.9
20260507170026 44 285 3.5 8.7 0.00 0.00 0.00 46 1011.9
20260507165509 45 240 0.9 7.0 0.00 0.00 0.00 46 1012.0
20260507165009 45 244 0.9 7.0 0.00 0.00 0.00 47 1012.0
20260507164530 45 352 2.6 7.0 0.00 0.00 0.00 47 1012.1
20260507164003 45 321 2.6 7.0 0.00 0.00 0.00 46 1012.1
20260507163504 45 219 0.0 7.0 0.00 0.00 0.00 48 1012.2
20260507163014 45 61 1.7 7.0 0.00 0.00 0.00 48 1012.2
20260507162507 45 334 1.7 6.1 0.00 0.00 0.00 48 1012.2
20260507162007 45 226 1.7 4.3 0.00 0.00 0.00 47 1012.3
20260507161531 45 281 0.9 9.6 0.00 0.00 0.00 48 1012.3
20260507161008 44 26 2.6 9.6 0.00 0.00 0.00 47 1012.4
20260507160508 45 269 2.6 7.0 0.00 0.00 0.00 47 1012.4
20260507160038 45 301 1.7 7.0 0.00 0.00 0.00 48 1012.4
20260507155508 45 221 1.7 6.1 0.00 0.00 0.00 48 1012.6
20260507155011 45 271 1.7 6.1 0.00 0.00 0.00 47 1012.6
20260507154531 45 348 1.7 6.1 0.00 0.00 0.00 48 1012.5
20260507154009 44 246 1.7 6.1 0.00 0.00 0.00 47 1012.6
20260507153512 44 96 2.6 7.0 0.00 0.00 0.00 49 1012.7
20260507153012 44 205 1.7 7.0 0.00 0.00 0.00 48 1012.7
20260507152504 45 108 1.7 9.6 0.00 0.00 0.00 51 1012.8
20260507152005 44 230 1.7 9.6 0.00 0.00 0.00 49 1012.7
20260507151519 44 247 4.3 9.6 0.00 0.00 0.00 51 1012.7
20260507151005 44 271 1.7 9.6 0.00 0.00 0.00 51 1012.8
20260507150508 44 246 3.5 8.7 0.00 0.00 0.00 53 1012.8
20260507150027 44 215 4.3 8.7 0.00 0.00 0.00 53 1012.7
20260507145510 44 251 1.7 7.8 0.00 0.00 0.00 54 1012.7
20260507145004 44 203 0.9 7.0 0.00 0.00 0.00 54 1012.8
20260507144504 44 313 1.7 7.0 0.00 0.00 0.00 55 1012.7
20260507144004 44 223 1.7 7.0 0.00 0.00 0.00 56 1012.6
20260507143504 43 190 1.7 7.0 0.00 0.00 0.00 56 1012.7
20260507143014 43 253 2.6 7.0 0.00 0.00 0.00 57 1012.7
20260507142505 43 261 2.6 7.0 0.00 0.00 0.00 58 1012.6
20260507142004 44 219 0.9 5.2 0.00 0.00 0.00 58 1012.6
20260507141519 43 186 0.0 6.1 0.00 0.00 0.00 60 1012.7
20260507141008 43 189 0.9 9.6 0.00 0.00 0.00 57 1012.7
20260507140509 43 263 2.6 9.6 0.00 0.00 0.00 57 1012.7
20260507140006 42 242 3.5 7.8 0.00 0.00 0.00 57 1012.8
20260507135503 42 244 2.6 7.0 0.00 0.00 0.00 62 1012.9
20260507135003 43 198 2.6 6.1 0.00 0.00 0.00 59 1012.7
20260507134505 43 242 0.0 7.8 0.00 0.00 0.00 61 1012.7
20260507134004 42 150 0.9 7.8 0.00 0.00 0.00 62 1012.7
20260507133504 42 248 2.6 11.3 0.00 0.00 0.00 63 1012.6
20260507133007 42 313 5.2 11.3 0.00 0.00 0.00 66 1012.8
20260507132504 42 222 2.6 9.6 0.00 0.00 0.00 66 1012.7
20260507132006 42 276 4.3 9.6 0.00 0.00 0.00 66 1012.7
20260507131514 42 308 2.6 6.1 0.00 0.00 0.00 67 1012.8
20260507131005 42 204 0.9 6.1 0.00 0.00 0.00 69 1012.8
20260507130505 41 233 2.6 6.1 0.00 0.00 0.00 70 1012.8
20260507130024 41 273 1.7 6.1 0.00 0.00 0.00 71 1012.7
20260507125508 40 236 2.6 6.1 0.00 0.00 0.00 71 1012.7
20260507125011 40 330 3.5 6.1 0.00 0.00 0.00 72 1012.7
20260507124505 40 271 1.7 6.1 0.00 0.00 0.00 74 1012.7
20260507124003 40 273 0.9 9.6 0.00 0.00 0.00 75 1012.7
20260507123504 39 218 2.6 9.6 0.00 0.00 0.00 76 1012.5
20260507123005 39 257 2.6 9.6 0.00 0.00 0.00 78 1012.5
20260507122504 39 227 1.7 3.5 0.00 0.00 0.00 80 1012.5
20260507122008 38 266 0.0 7.0 0.00 0.00 0.00 81 1012.5
20260507121511 38 251 2.6 7.0 0.00 0.00 0.00 82 1012.5
20260507121004 37 243 0.0 2.6 0.00 0.00 0.00 83 1012.6
20260507120508 37 243 0.9 3.5 0.00 0.00 0.00 84 1012.5
20260507120014 37 223 0.0 3.5 0.00 0.00 0.00 85 1012.5
20260507115504 36 239 0.9 3.5 0.00 0.00 0.00 88 1012.5
20260507115004 35 228 1.7 3.5 0.00 0.00 0.00 89 1012.4
20260507114518 35 302 0.0 0.0 0.00 0.00 0.00 91 1012.4
20260507114008 33 302 0.0 0.0 0.00 0.00 0.00 91 1012.4
20260507113506 32 302 0.0 0.0 0.00 0.00 0.00 91 1012.4
20260507113009 32 302 0.0 0.0 0.00 0.00 0.00 91 1012.4
20260507112504 32 302 0.0 0.0 0.00 0.00 0.00 91 1012.3
20260507112004 31 302 0.0 0.0 0.00 0.00 0.00 91 1012.3
20260507111507 31 302 0.0 0.0 0.00 0.00 0.00 91 1012.2
20260507111004 31 302 0.0 0.0 0.00 0.00 0.00 91 1012.1
20260507110503 31 302 0.0 0.0 0.00 0.00 0.00 91 1012.0
20260507110024 31 302 0.0 0.0 0.00 0.00 0.00 90 1012.0
20260507105503 31 302 0.0 0.0 0.00 0.00 0.00 90 1012.0
20260507105007 30 302 0.0 0.0 0.00 0.00 0.00 90 1011.9
20260507104514 31 302 0.0 0.0 0.00 0.00 0.00 90 1011.9
20260507104005 31 302 0.0 0.9 0.00 0.00 0.00 90 1011.9
20260507103506 31 302 0.0 0.9 0.00 0.00 0.00 90 1011.9
20260507103020 31 302 0.0 0.0 0.00 0.00 0.00 90 1011.9
20260507102506 31 302 0.0 0.0 0.00 0.00 0.00 89 1011.8
20260507102010 31 302 0.0 0.0 0.00 0.00 0.00 90 1011.8
20260507101526 31 302 0.0 0.0 0.00 0.00 0.00 89 1011.9
20260507101003 31 302 0.0 0.0 0.00 0.00 0.00 89 1012.0
20260507100503 31 302 0.0 0.0 0.00 0.00 0.00 89 1012.0
20260507100011 31 302 0.0 0.0 0.00 0.00 0.00 89 1011.9
20260507095503 31 302 0.0 0.0 0.00 0.00 0.00 89 1011.9
20260507095004 31 302 0.0 0.0 0.00 0.00 0.00 89 1012.0
20260507094513 32 302 0.0 0.0 0.00 0.00 0.00 88 1011.9
20260507094003 32 302 0.0 0.0 0.00 0.00 0.00 88 1011.9
20260507093511 32 302 0.0 0.0 0.00 0.00 0.00 88 1012.0
20260507093025 32 302 0.0 0.0 0.00 0.00 0.00 88 1012.1
20260507092508 32 302 0.0 0.0 0.00 0.00 0.00 88 1012.1
20260507092010 32 302 0.0 0.0 0.00 0.00 0.00 87 1012.1
20260507091535 33 302 0.0 0.0 0.00 0.00 0.00 87 1012.1
20260507091008 33 302 0.0 0.0 0.00 0.00 0.00 87 1012.0
20260507090511 33 302 0.0 0.0 0.00 0.00 0.00 86 1012.0
20260507090024 34 302 0.0 0.0 0.00 0.00 0.00 86 1012.0
20260507085504 34 302 0.0 0.0 0.00 0.00 0.00 86 1012.2
20260507085004 34 302 0.0 0.0 0.00 0.00 0.00 86 1012.1
20260507084518 34 302 0.0 0.0 0.00 0.00 0.00 86 1012.1
20260507084003 34 302 0.0 0.0 0.00 0.00 0.00 86 1012.1
20260507083509 34 302 0.0 0.0 0.00 0.00 0.00 85 1012.2
20260507083014 35 302 0.0 0.0 0.00 0.00 0.00 85 1012.2
20260507082507 35 302 0.0 0.0 0.00 0.00 0.00 85 1012.3
20260507082006 35 302 0.0 0.0 0.00 0.00 0.00 85 1012.3
20260507081523 35 302 0.0 0.0 0.00 0.00 0.00 84 1012.3
20260507081008 35 302 0.0 0.0 0.00 0.00 0.00 84 1012.3
20260507080508 35 302 0.0 0.0 0.00 0.00 0.00 83 1012.4
20260507080027 36 302 0.0 0.0 0.00 0.00 0.00 83 1012.4
20260507075508 36 302 0.0 0.0 0.00 0.00 0.00 83 1012.4
20260507075011 36 302 0.0 0.0 0.00 0.00 0.00 82 1012.4
20260507074527 36 302 0.0 0.0 0.00 0.00 0.00 82 1012.4
20260507074006 37 302 0.0 0.0 0.00 0.00 0.00 82 1012.4
20260507073504 37 302 0.0 0.0 0.00 0.00 0.00 81 1012.5
20260507073012 37 302 0.0 0.0 0.00 0.00 0.00 81 1012.5
20260507072507 37 302 0.0 1.7 0.00 0.00 0.00 81 1012.5
20260507072009 37 302 0.0 1.7 0.00 0.00 0.00 80 1012.5
20260507071519 37 19 0.0 0.0 0.00 0.00 0.00 79 1012.5
20260507071005 37 19 0.0 0.0 0.00 0.00 0.00 79 1012.5
20260507070508 37 19 0.0 0.0 0.00 0.00 0.00 78 1012.5
20260507070025 37 19 0.0 0.0 0.00 0.00 0.00 78 1012.6
20260507065507 37 19 0.0 0.9 0.00 0.00 0.00 77 1012.6
20260507065006 37 19 0.0 0.9 0.00 0.00 0.00 77 1012.7
20260507064528 37 19 0.0 0.9 0.00 0.00 0.00 78 1012.9
20260507064008 37 19 0.0 0.0 0.00 0.00 0.00 80 1012.9
20260507063510 37 19 0.0 0.0 0.00 0.00 0.00 80 1013.0
20260507063039 37 19 0.0 0.0 0.00 0.00 0.00 79 1013.0
20260507062505 37 19 0.0 0.0 0.00 0.00 0.00 80 1013.1
20260507062004 37 19 0.0 0.0 0.00 0.00 0.00 79 1013.1
20260507061516 37 19 0.0 0.0 0.00 0.00 0.00 77 1013.0
20260507061007 38 19 0.0 0.0 0.00 0.00 0.00 77 1013.0
20260507060507 38 19 0.0 0.0 0.00 0.00 0.00 76 1013.1
20260507060034 38 19 0.0 0.0 0.00 0.00 0.00 75 1013.1
20260507055508 38 19 0.0 0.9 0.00 0.00 0.00 75 1013.1
20260507055009 38 19 0.0 0.9 0.00 0.00 0.00 74 1013.1
20260507054524 38 19 0.0 0.9 0.00 0.00 0.00 75 1013.0
20260507054009 38 19 0.0 0.0 0.00 0.00 0.00 75 1013.0
20260507053509 38 19 0.0 0.0 0.00 0.00 0.00 75 1013.0
20260507053026 39 19 0.0 0.0 0.00 0.00 0.00 74 1013.1
20260507052511 39 19 0.0 0.0 0.00 0.00 0.00 74 1013.2
20260507052008 39 19 0.0 0.9 0.00 0.00 0.00 74 1013.2
20260507051532 39 19 0.0 1.7 0.00 0.00 0.00 73 1013.3
20260507051003 39 19 0.0 1.7 0.00 0.00 0.00 72 1013.3
20260507050504 39 19 0.0 1.7 0.00 0.00 0.00 74 1013.4
20260507050019 39 19 0.0 0.0 0.00 0.00 0.00 76 1013.5
20260507045503 39 19 0.0 0.0 0.00 0.00 0.00 75 1013.5
20260507045002 39 19 0.0 0.0 0.00 0.00 0.00 74 1013.5
20260507044512 39 19 0.0 0.0 0.00 0.00 0.00 74 1013.4
20260507044003 39 19 0.0 0.0 0.00 0.00 0.00 72 1013.4
20260507043505 39 19 0.0 0.9 0.00 0.00 0.00 72 1013.2
20260507043012 39 19 0.0 0.9 0.00 0.00 0.00 72 1013.4
20260507042503 39 19 0.0 0.9 0.00 0.00 0.00 72 1013.4
20260507042003 39 19 0.0 0.9 0.00 0.00 0.00 72 1013.3
20260507041508 39 19 0.0 0.9 0.00 0.00 0.00 72 1013.3
20260507041003 39 19 0.0 0.0 0.00 0.00 0.00 71 1013.4
20260507040504 39 19 0.0 0.0 0.00 0.00 0.00 71 1013.3
20260507040011 39 19 0.0 0.0 0.00 0.00 0.00 71 1013.4
20260507035504 39 19 0.0 0.0 0.00 0.00 0.00 70 1013.4
20260507035004 39 19 0.0 0.0 0.00 0.00 0.00 70 1013.4
20260507034527 39 19 0.0 0.9 0.00 0.00 0.00 69 1013.4
20260507034007 39 19 0.0 0.9 0.00 0.00 0.00 69 1013.5
20260507033507 39 19 0.0 0.0 0.00 0.00 0.00 69 1013.6
20260507033013 39 19 0.0 0.0 0.00 0.00 0.00 67 1013.6
20260507032504 39 19 0.0 0.9 0.00 0.00 0.00 67 1013.6
20260507032006 39 19 0.0 0.9 0.00 0.00 0.00 68 1013.6
20260507031513 39 19 0.0 0.9 0.00 0.00 0.00 68 1013.5
20260507031004 39 19 0.0 0.9 0.00 0.00 0.00 67 1013.6
20260507030503 39 19 0.0 0.9 0.00 0.00 0.00 67 1013.7
20260507030011 39 19 0.0 0.9 0.00 0.00 0.00 67 1013.7
20260507025504 39 19 0.0 0.0 0.00 0.00 0.00 67 1013.6
20260507025002 39 19 0.0 0.0 0.00 0.00 0.00 65 1013.6
20260507024517 39 19 0.0 0.0 0.00 0.00 0.00 66 1013.6
20260507024009 39 19 0.0 0.0 0.00 0.00 0.00 67 1013.5
20260507023502 39 19 0.0 0.0 0.00 0.00 0.00 67 1013.5
20260507023011 39 19 0.0 0.0 0.00 0.00 0.00 66 1013.5
20260507022507 39 19 0.0 0.0 0.00 0.00 0.00 66 1013.6
20260507022006 39 19 0.0 0.0 0.00 0.00 0.00 64 1013.5
20260507021515 39 19 0.0 0.0 0.00 0.00 0.00 65 1013.6
20260507021004 39 19 0.0 0.9 0.00 0.00 0.00 64 1013.5
20260507020505 39 19 0.0 2.6 0.00 0.00 0.00 64 1013.4
20260507020027 39 19 0.0 2.6 0.00 0.00 0.00 63 1013.3
20260507015503 39 76 0.0 2.6 0.00 0.00 0.00 62 1013.4
20260507015004 39 27 0.0 3.5 0.00 0.00 0.00 62 1013.4
20260507014514 39 37 0.9 3.5 0.00 0.00 0.00 62 1013.2
20260507014005 39 96 0.9 4.3 0.00 0.00 0.00 62 1013.2
20260507013504 39 43 1.7 4.3 0.00 0.00 0.00 62 1013.2
20260507013019 39 18 0.9 3.5 0.00 0.00 0.00 63 1013.1
20260507012506 39 32 0.9 3.5 0.00 0.00 0.00 63 1013.1
20260507012007 39 70 0.9 2.6 0.00 0.00 0.00 63 1013.1
20260507011514 40 76 0.9 2.6 0.00 0.00 0.00 63 1013.1
20260507011007 40 12 0.9 2.6 0.00 0.00 0.00 62 1013.0
20260507010504 40 30 1.7 5.2 0.00 0.00 0.00 62 1012.9
20260507010013 40 32 1.7 5.2 0.00 0.00 0.00 61 1012.8
20260507005505 40 46 2.6 7.0 0.00 0.00 0.00 62 1012.8
20260507005005 41 38 2.6 7.0 0.00 0.00 0.00 61 1012.7
20260507004515 41 51 1.7 4.3 0.00 0.00 0.00 61 1012.7
20260507004005 41 49 2.6 4.3 0.00 0.00 0.00 61 1012.7
20260507003504 42 64 0.9 3.5 0.00 0.00 0.00 61 1012.6
20260507003014 42 79 1.7 4.3 0.00 0.00 0.00 60 1012.5
20260507002505 42 57 1.7 4.3 0.00 0.00 0.00 59 1012.4
20260507002008 43 20 2.6 7.0 0.00 0.00 0.00 58 1012.4
20260507001517 43 15 2.6 7.0 0.00 0.00 0.00 58 1012.3
20260507001009 43 88 1.7 8.7 0.00 0.00 0.00 57 1012.3
20260507000504 44 34 4.3 8.7 0.00 0.00 0.00 55 1012.3
20260507000019 45 21 1.7 5.2 0.00 0.00 0.00 51 1012.3
20260506235509 45 267 0.0 3.5 0.00 0.00 0.00 50 1012.3
20260506235004 45 211 0.9 6.1 0.00 0.00 0.00 50 1012.3
20260506234522 45 302 0.9 7.0 0.00 0.00 0.00 50 1012.3
20260506234006 46 227 1.7 7.0 0.00 0.00 0.00 50 1012.3
20260506233507 46 186 2.6 7.8 0.00 0.00 0.00 49 1012.3
20260506233016 45 209 2.6 7.8 0.00 0.00 0.00 49 1012.3
20260506232504 45 37 0.9 6.1 0.00 0.00 0.00 51 1012.3
20260506232007 45 12 3.5 7.0 0.00 0.00 0.00 50 1012.3
20260506231518 45 5 3.5 8.7 0.00 0.00 0.00 50 1012.3
20260506231005 46 57 1.7 8.7 0.00 0.00 0.00 49 1012.3
20260506230505 45 333 2.6 7.8 0.00 0.00 0.00 50 1012.4
20260506230016 46 32 3.5 7.8 0.00 0.00 0.00 50 1012.3
20260506225508 46 334 2.6 5.2 0.00 0.00 0.00 49 1012.4
20260506225007 46 209 0.0 7.0 0.00 0.00 0.00 50 1012.4
20260506224519 46 318 1.7 9.6 0.00 0.00 0.00 50 1012.4
20260506224006 46 360 0.9 9.6 0.00 0.00 0.00 51 1012.4
20260506223506 46 303 1.7 4.3 0.00 0.00 0.00 48 1012.4
20260506223020 46 306 0.9 8.7 0.00 0.00 0.00 50 1012.5
20260506222507 46 322 0.9 8.7 0.00 0.00 0.00 49 1012.4
20260506222006 46 205 0.9 7.8 0.00 0.00 0.00 48 1012.5
20260506221517 46 326 4.3 7.8 0.00 0.00 0.00 48 1012.4
20260506221004 46 20 2.6 6.1 0.00 0.00 0.00 48 1012.4
20260506220507 46 65 1.7 7.0 0.00 0.00 0.00 49 1012.4
20260506220024 46 352 0.0 7.0 0.00 0.00 0.00 50 1012.4
20260506215502 46 225 0.9 13.9 0.00 0.00 0.00 48 1012.4
20260506215002 47 336 1.7 13.9 0.00 0.00 0.00 47 1012.3
20260506214504 46 333 1.7 7.0 0.00 0.00 0.00 49 1012.4
20260506214004 46 285 0.9 7.0 0.00 0.00 0.00 48 1012.4
20260506213504 46 190 1.7 7.0 0.00 0.00 0.00 47 1012.4
20260506213005 47 188 2.6 7.8 0.00 0.00 0.00 47 1012.4
20260506212503 47 196 2.6 7.8 0.00 0.00 0.00 49 1012.3
20260506212003 46 14 1.7 6.1 0.00 0.00 0.00 47 1012.3
20260506211513 47 53 1.7 6.1 0.00 0.00 0.00 48 1012.4
20260506211004 48 221 0.9 7.8 0.00 0.00 0.00 48 1012.3